AOBA VELOX-IV (43940 NORAD) Tracking and Keplerian Element Data

This shows tracking and keplerian element data for the satellite.

Feedback or suggestion? Click here.




ElementValue
Catalog43940
NameAOBA VELOX-IV
Epoch Orbit548
Epoch Day54.08965669
Epoch Year2019
RAAN115.3608
Inclination97.2925
Eccentricity0.002646
Argument of Perigee117.2199
Mean Anonmoly330.2295
Mean Motion15.23357781
Decay Rate1.536E-05
L11 43940U 19003J 19054.08965669 .00001536 00000-0 66951-4 0 9997
L22 43940 97.2925 115.3608 0026460 117.2199 330.2295 15.23357781 5481

Live tracking and technical data element details for AOBA VELOX-IV (NORAD 43940). AOBA VELOX-IV can be tracked NOW for your location showing map with azimuth and elevation plus other details from your city location.

Track the satellite on the map from your city or location and see movement details for azimuth, elevation, latitude, longitude, range, height, and movement on the map or in text.







IsCatalogInMostPopularTable: catalog: 43940, numindb: 18
Update: records affected: 1



GetName: 43940 AOBA VELOX-IV

Hit Count: updated at: Sat, 23 Feb 2019 17:59:24 GMT